Location: Presov
(49.0000°N, 21.2500°E)
Time: 20:49:18
(UTC+01:00)

ISS - Visible Passes

Search period start: 09 December 2018 00:00
Search period end: 19 December 2018 00:00
Orbit: 401 x 408 km, 51.6° (Epoch: 10 December)

Date Brightness Start Highest point End Pass type
(mag) Time Alt. Az. Time Alt. Az. Time Alt. Az.
09 Dec -3.9 16:47:09 10° WNW 16:50:26 82° NNE 16:53:11 14° ESE visible
09 Dec -1.4 18:23:57 10° W 18:25:52 22° WSW 18:25:52 22° WSW visible
10 Dec -2.5 17:31:31 10° WNW 17:34:36 38° SSW 17:36:18 21° SSE visible
11 Dec -3.3 16:39:13 10° WNW 16:42:27 60° SSW 16:45:40 10° SE visible
11 Dec -0.8 18:16:54 10° WSW 18:18:24 13° SW 18:19:41 11° SSW visible
12 Dec -1.2 17:23:53 10° W 17:26:24 20° SW 17:28:54 10° SSE visible
13 Dec -1.9 16:31:20 10° W 16:34:19 32° SW 16:37:17 10° SSE visible
14 Dec -0.2 17:17:27 10° SW 17:18:01 10° SW 17:18:37 10° SW visible
15 Dec -0.7 16:23:46 10° W 16:26:01 17° SW 16:28:15 10° S visible
